sat.trackr.live / text

‹ back to catalog

2022-023A

NORAD 51946 · 2022-023A

PAYLOAD ACTIVE UNKNOWN

§ Identity

Operator
Country
PRC
Launch date
2022-03-05
Launch site
XICLF
Launch vehicle
Mass (kg)
RCS (m²)

External: N2YO · Heavens-Above · Gunter

§ Orbital elements

Epoch: 2026-05-25T02:38:14.843328Z

Period
94.87 min
Inclination
63.4870°
Eccentricity
0.0104125
Mean motion
15.17944798 rev/d
Perigee alt
440.3 km
Apogee alt
583.8 km
Semi-major
6,890.2 km
B*
5.9726e-4
RAAN
348.7623°
Arg perigee
343.0586°
Mean anomaly
16.7058°
Rev number
23,421

§ Raw data

2022-023A1 51946U 22023A   26145.10989402  .00013834  00000+0  59726-3 0  99952 51946  63.4870 348.7623 0104125 343.0586  16.7058 15.17944798234214

JSON: /api/v1/satellites/51946 · /tle

For live sub-satellite position, see the globe view (requires WebGL).

§ Visibility from observer

Set your observer location to see the next 7 days of passes ≥ 10°. The values pass through the URL so the page stays shareable.

No JS? Fill the form by hand. The geolocation button needs JavaScript.